Вернуться в каталог

FENGYUN 1C DEB

АктивенSSO
NORAD 30640·DEBRIS·🇨🇳 China

Запущен May 10, 1999 с Taiyuan Satellite Launch Center

Loading…

Ближайшие Пролёты (ближайшие 24 часа)

TLE

СвежийSource: Space-Track

Эпоха: Sep 14, 2026, 11:57 UTC

1 30640U 99025ANX 26257.49842571  .00001282  00000-0  65428-3 0  9991
2 30640  99.0413 337.6950 0079087  40.8455  80.1219 14.15911836  3453

Отслеживайте FENGYUN 1C DEB в реальном времени с AllMySat

Download on the App Store